PAC8575 VVNB-VIDP

Flight info

Callsign PAC8575
Flight time 4h 3m
Altitude 34000
Route N0497F340 HUVAN3A HUVAN W21 BQ B214 AKSAG B465 CTG G463 MONDA A201 LKN R594 JAL JAL7F
Aircraft B748/H-SADE1E2E3FGHIJ1J2J3J4J5J7M1M3P2RWXYZ/LB1D1G1

Departure

Time 2026-05-03 20:44
Airport Noi Bai International Airport (VVNB)

Arrival

Time 2026-05-04 00:47
Airport Indira Gandhi International Airport (VIDP)
Time Latitude Longitude Altitude Speed Heading
2026-05-03 20:15 21.21480 105.80665 53 ft 0 kts 288°
2026-05-03 20:33 21.21485 105.80648 53 ft 4 kts 288°
2026-05-03 20:33 21.21500 105.80617 53 ft 6 kts 314°
2026-05-03 20:33 21.21540 105.80616 53 ft 9 kts 18°
2026-05-03 20:33 21.21598 105.80636 53 ft 9 kts 17°
2026-05-03 20:34 21.21654 105.80655 53 ft 8 kts 17°
2026-05-03 20:34 21.21707 105.80653 53 ft 8 kts 328°
2026-05-03 20:34 21.21732 105.80603 53 ft 8 kts 287°
2026-05-03 20:34 21.21748 105.80550 53 ft 7 kts 287°
2026-05-03 20:35 21.21762 105.80499 53 ft 7 kts 287°
2026-05-03 20:35 21.21776 105.80450 53 ft 7 kts 287°
2026-05-03 20:35 21.21789 105.80403 53 ft 7 kts 287°
2026-05-03 20:35 21.21807 105.80346 53 ft 10 kts 289°
2026-05-03 20:36 21.21835 105.80255 53 ft 19 kts 288°
2026-05-03 20:36 21.21870 105.80139 53 ft 14 kts 287°
2026-05-03 20:36 21.21897 105.80045 53 ft 13 kts 287°
2026-05-03 20:36 21.21923 105.79956 53 ft 12 kts 287°
2026-05-03 20:37 21.21947 105.79869 53 ft 12 kts 287°
2026-05-03 20:37 21.21971 105.79786 53 ft 11 kts 287°
2026-05-03 20:37 21.21996 105.79697 53 ft 15 kts 287°
2026-05-03 20:37 21.22034 105.79568 53 ft 21 kts 288°
2026-05-03 20:38 21.22084 105.79399 53 ft 25 kts 287°
2026-05-03 20:38 21.22123 105.79266 53 ft 15 kts 287°
2026-05-03 20:38 21.22153 105.79161 53 ft 14 kts 287°
2026-05-03 20:38 21.22185 105.79051 53 ft 16 kts 287°
2026-05-03 20:39 21.22217 105.78942 53 ft 15 kts 287°
2026-05-03 20:39 21.22246 105.78842 53 ft 14 kts 287°
2026-05-03 20:39 21.22274 105.78747 53 ft 13 kts 286°
2026-05-03 20:39 21.22297 105.78656 53 ft 12 kts 285°
2026-05-03 20:40 21.22342 105.78614 53 ft 9 kts
2026-05-03 20:40 21.22389 105.78627 53 ft 7 kts 19°
2026-05-03 20:40 21.22434 105.78644 53 ft 4 kts 19°
2026-05-03 20:40 21.22442 105.78647 53 ft 1 kts 19°
2026-05-03 20:41 21.22448 105.78650 53 ft 1 kts 34°
2026-05-03 20:41 21.22457 105.78662 53 ft 4 kts 73°
2026-05-03 20:41 21.22458 105.78690 53 ft 4 kts 102°
2026-05-03 20:41 21.22455 105.78700 53 ft 0 kts 107°
2026-05-03 20:43 21.22420 105.78828 53 ft 45 kts 108°
2026-05-03 20:43 21.22271 105.79353 54 ft 100 kts 108°
2026-05-03 20:43 21.22008 105.80264 54 ft 154 kts 110°
2026-05-03 20:44 21.21641 105.81497 175 ft 183 kts 105°
2026-05-03 20:44 21.21263 105.82815 757 ft 183 kts 104°
2026-05-03 20:44 21.20900 105.84132 1338 ft 186 kts 104°
2026-05-03 20:44 21.20540 105.85459 1854 ft 189 kts 103°
2026-05-03 20:45 21.20172 105.86807 2261 ft 187 kts 103°
2026-05-03 20:45 21.19802 105.88152 2614 ft 190 kts 102°
2026-05-03 20:45 21.19428 105.89514 2998 ft 190 kts 102°
2026-05-03 20:45 21.19052 105.90879 3353 ft 193 kts 102°
2026-05-03 20:46 21.18661 105.92299 3606 ft 205 kts 102°
2026-05-03 20:46 21.18245 105.93809 3800 ft 216 kts 102°
2026-05-03 20:46 21.17806 105.95390 4064 ft 227 kts 102°
2026-05-03 20:46 21.17432 105.97074 4256 ft 237 kts 89°
2026-05-03 20:47 21.17766 105.98787 4476 ft 240 kts 60°
2026-05-03 20:47 21.18896 106.00106 4755 ft 245 kts 33°
2026-05-03 20:47 21.20439 106.00842 5331 ft 241 kts 20°
2026-05-03 20:47 21.22029 106.01310 5922 ft 242 kts 15°
2026-05-03 20:48 21.23710 106.01705 6340 ft 249 kts 14°
2026-05-03 20:48 21.25389 106.02148 6956 ft 248 kts 15°
2026-05-03 20:48 21.27046 106.02648 7598 ft 248 kts 17°
2026-05-03 20:48 21.28740 106.03188 7979 ft 260 kts 14°
2026-05-03 20:49 21.30585 106.03217 8216 ft 274 kts 348°
2026-05-03 20:49 21.32294 106.02301 8692 ft 282 kts 323°
2026-05-03 20:49 21.33517 106.00641 9143 ft 289 kts 299°
2026-05-03 20:49 21.34159 105.98603 9763 ft 289 kts 285°
2026-05-03 20:50 21.34518 105.96459 10280 ft 296 kts 282°
2026-05-03 20:50 21.34912 105.94236 10555 ft 312 kts 284°
2026-05-03 20:50 21.35436 105.91907 10710 ft 332 kts 287°
2026-05-03 20:50 21.36099 105.89460 10886 ft 352 kts 288°
2026-05-03 20:51 21.36864 105.86888 10990 ft 373 kts 287°
2026-05-03 20:51 21.37660 105.84196 11465 ft 381 kts 286°
2026-05-03 20:51 21.38453 105.81484 12291 ft 380 kts 285°
2026-05-03 20:51 21.39249 105.78773 13028 ft 383 kts 285°
2026-05-03 20:52 21.40050 105.76033 13686 ft 386 kts 284°
2026-05-03 20:52 21.40854 105.73265 14234 ft 392 kts 283°
2026-05-03 20:52 21.41208 105.70384 14771 ft 391 kts 266°
2026-05-03 20:52 21.40796 105.67484 15286 ft 396 kts 256°
2026-05-03 20:53 21.40078 105.64652 15846 ft 399 kts 252°
2026-05-03 20:53 21.39176 105.61842 16550 ft 400 kts 249°
2026-05-03 20:53 21.38154 105.59030 17031 ft 406 kts 248°
2026-05-03 20:53 21.37097 105.56210 17642 ft 408 kts 248°
2026-05-03 20:54 21.36049 105.53393 18508 ft 403 kts 249°
2026-05-03 20:54 21.34001 105.47793 19691 ft 407 kts 249°
2026-05-03 20:54 21.32987 105.44953 20260 ft 409 kts 249°
2026-05-03 20:55 21.31962 105.42073 20559 ft 417 kts 249°
2026-05-03 20:55 21.30924 105.39141 20834 ft 425 kts 249°
2026-05-03 20:55 21.29865 105.36179 21313 ft 427 kts 249°
2026-05-03 20:55 21.28788 105.33178 21641 ft 433 kts 249°
2026-05-03 20:56 21.27697 105.30149 21988 ft 439 kts 249°
2026-05-03 20:56 21.26593 105.27086 22471 ft 441 kts 249°
2026-05-03 20:56 21.25483 105.24016 22946 ft 443 kts 249°
2026-05-03 20:56 21.24371 105.20937 23492 ft 442 kts 249°
2026-05-03 20:57 21.23264 105.17890 24225 ft 437 kts 249°
2026-05-03 20:57 21.22169 105.14848 24607 ft 440 kts 249°
2026-05-03 20:57 21.21302 105.11681 24749 ft 448 kts 259°
2026-05-03 20:57 21.20940 105.08334 24992 ft 455 kts 264°
2026-05-03 20:58 21.20801 105.04926 25255 ft 461 kts 268°
2026-05-03 20:58 21.20807 105.01527 25586 ft 464 kts 269°
2026-05-03 20:58 21.20870 104.98057 25925 ft 467 kts 269°
2026-05-03 20:58 21.20925 104.94560 26219 ft 471 kts 269°
2026-05-03 20:59 21.20967 104.91043 26490 ft 474 kts 269°
2026-05-03 20:59 21.21002 104.87539 26811 ft 476 kts 269°
2026-05-03 20:59 21.21034 104.83987 27187 ft 477 kts 269°
2026-05-03 20:59 21.21060 104.80422 27529 ft 478 kts 269°
2026-05-03 21:00 21.21084 104.76859 27939 ft 478 kts 269°
2026-05-03 21:00 21.21092 104.75657 28087 ft 478 kts 269°
2026-05-03 21:00 21.21148 104.69770 28869 ft 474 kts 269°
2026-05-03 21:00 21.21180 104.66238 29203 ft 475 kts 269°
2026-05-03 21:01 21.21208 104.62698 29606 ft 474 kts 269°
2026-05-03 21:01 21.21231 104.59165 30064 ft 472 kts 269°
2026-05-03 21:01 21.21257 104.55656 30497 ft 471 kts 269°
2026-05-03 21:01 21.21279 104.52149 30818 ft 471 kts 269°
2026-05-03 21:02 21.21294 104.49811 31027 ft 471 kts 269°
2026-05-03 21:02 21.21313 104.46311 31431 ft 468 kts 269°
2026-05-03 21:02 21.21333 104.42827 31766 ft 468 kts 269°
2026-05-03 21:02 21.21357 104.38165 32142 ft 467 kts 270°
2026-05-03 21:03 21.21380 104.35855 32340 ft 467 kts 269°
2026-05-03 21:03 21.21404 104.32376 32640 ft 466 kts 269°
2026-05-03 21:03 21.21421 104.28913 32914 ft 465 kts 269°
2026-05-03 21:03 21.21435 104.25446 33175 ft 465 kts 269°
2026-05-03 21:04 21.21446 104.22083 33424 ft 464 kts 269°
2026-05-03 21:04 21.21457 104.18521 33631 ft 464 kts 269°
2026-05-03 21:04 21.21467 104.15064 33879 ft 463 kts 269°
2026-05-03 21:04 21.21477 104.11611 33996 ft 464 kts 269°
2026-05-03 21:05 21.21489 104.04705 34018 ft 463 kts 268°
2026-05-03 21:05 21.21003 103.97858 34016 ft 463 kts 263°
2026-05-03 21:06 21.20240 103.91021 34008 ft 462 kts 263°
2026-05-03 21:06 21.19506 103.84180 34003 ft 462 kts 263°
2026-05-03 21:07 21.18791 103.77343 33997 ft 462 kts 263°
2026-05-03 21:07 21.18079 103.70503 33991 ft 462 kts 263°
2026-05-03 21:08 21.17384 103.63660 33986 ft 462 kts 263°
2026-05-03 21:08 21.16688 103.56800 33981 ft 463 kts 263°
2026-05-03 21:09 21.15980 103.49940 33970 ft 463 kts 263°
2026-05-03 21:09 21.15267 103.43090 33964 ft 463 kts 263°
2026-05-03 21:10 21.14554 103.36272 33956 ft 463 kts 263°
2026-05-03 21:10 21.13842 103.29416 33950 ft 463 kts 263°
2026-05-03 21:11 21.13130 103.22558 33943 ft 463 kts 263°
2026-05-03 21:11 21.12400 103.15705 33935 ft 463 kts 263°
2026-05-03 21:12 21.11665 103.08845 33932 ft 463 kts 263°
2026-05-03 21:12 21.10929 103.01993 33919 ft 463 kts 263°
2026-05-03 21:13 21.10198 102.95180 33916 ft 463 kts 263°
2026-05-03 21:13 21.09455 102.88331 33908 ft 463 kts 263°
2026-05-03 21:14 21.08707 102.81480 33904 ft 463 kts 263°
2026-05-03 21:14 21.07954 102.74622 33889 ft 463 kts 263°
2026-05-03 21:15 21.07201 102.67778 33880 ft 463 kts 263°
2026-05-03 21:15 21.06444 102.60933 33896 ft 463 kts 263°
2026-05-03 21:16 21.05713 102.54079 33896 ft 463 kts 263°
2026-05-03 21:16 21.04971 102.47232 33892 ft 463 kts 263°
2026-05-03 21:17 21.04347 102.41543 33893 ft 463 kts 263°
2026-05-03 21:17 21.03463 102.33543 33891 ft 463 kts 263°
2026-05-03 21:18 21.02705 102.26724 33887 ft 463 kts 263°
2026-05-03 21:18 21.01941 102.19877 33886 ft 463 kts 263°
2026-05-03 21:19 21.01174 102.13030 33864 ft 464 kts 263°
2026-05-03 21:19 21.00400 102.06170 33865 ft 464 kts 263°
2026-05-03 21:20 20.99628 101.99310 33861 ft 464 kts 263°
2026-05-03 21:20 20.98850 101.92445 33863 ft 464 kts 263°
2026-05-03 21:21 20.98074 101.85632 33867 ft 464 kts 263°
2026-05-03 21:21 20.97291 101.78770 33864 ft 465 kts 263°
2026-05-03 21:22 20.96505 101.71908 33871 ft 465 kts 263°
2026-05-03 21:22 20.95710 101.65046 33868 ft 465 kts 263°
2026-05-03 21:23 20.94920 101.58174 33875 ft 465 kts 263°
2026-05-03 21:23 20.94128 101.51300 33879 ft 465 kts 263°
2026-05-03 21:24 20.93331 101.44428 33876 ft 465 kts 263°
2026-05-03 21:24 20.92531 101.37567 33876 ft 465 kts 263°
2026-05-03 21:25 20.91729 101.30704 33876 ft 465 kts 263°
2026-05-03 21:25 20.90923 101.23839 33875 ft 465 kts 263°
2026-05-03 21:26 20.90119 101.17016 33874 ft 465 kts 263°
2026-05-03 21:26 20.89309 101.10153 33875 ft 465 kts 263°
2026-05-03 21:27 20.88493 101.03280 33874 ft 466 kts 263°
2026-05-03 21:27 20.87674 100.96402 33873 ft 466 kts 263°
2026-05-03 21:28 20.86853 100.89527 33871 ft 466 kts 262°
2026-05-03 21:28 20.86027 100.82633 33875 ft 466 kts 263°
2026-05-03 21:29 20.85216 100.75761 33875 ft 466 kts 263°
2026-05-03 21:29 20.84392 100.68934 33877 ft 466 kts 262°
2026-05-03 21:30 20.83555 100.62068 33882 ft 466 kts 262°
2026-05-03 21:30 20.82715 100.55203 33881 ft 466 kts 262°
2026-05-03 21:31 20.82045 100.48304 33877 ft 467 kts 272°
2026-05-03 21:31 20.83094 100.41437 33884 ft 469 kts 282°
2026-05-03 21:32 20.84827 100.34711 33888 ft 470 kts 285°
2026-05-03 21:32 20.86688 100.28011 33889 ft 470 kts 285°
2026-05-03 21:33 20.88520 100.21308 33888 ft 470 kts 284°
2026-05-03 21:33 20.90336 100.14589 33893 ft 470 kts 284°
2026-05-03 21:34 20.92148 100.07929 33894 ft 470 kts 285°
2026-05-03 21:34 20.93974 100.01225 33893 ft 469 kts 284°
2026-05-03 21:35 20.95784 99.94526 33895 ft 469 kts 284°
2026-05-03 21:35 20.97588 99.87824 33895 ft 469 kts 284°
2026-05-03 21:36 20.99387 99.81124 33934 ft 469 kts 284°
2026-05-03 21:36 21.01182 99.74423 33938 ft 469 kts 284°
2026-05-03 21:37 21.02977 99.67706 33934 ft 469 kts 284°
2026-05-03 21:37 21.04768 99.60993 33934 ft 469 kts 284°
2026-05-03 21:38 21.06557 99.54283 33932 ft 469 kts 284°
2026-05-03 21:38 21.08333 99.47615 33930 ft 468 kts 284°
2026-05-03 21:39 21.10110 99.40912 33931 ft 468 kts 284°
2026-05-03 21:39 21.11897 99.34169 33929 ft 468 kts 284°
2026-05-03 21:40 21.13661 99.27504 33906 ft 468 kts 284°
2026-05-03 21:40 21.15433 99.20796 33902 ft 468 kts 284°
2026-05-03 21:41 21.17202 99.14091 33897 ft 468 kts 284°
2026-05-03 21:41 21.18966 99.07383 33896 ft 468 kts 284°
2026-05-03 21:42 21.20731 99.00667 33893 ft 468 kts 284°
2026-05-03 21:42 21.22492 98.93952 33890 ft 468 kts 284°
2026-05-03 21:43 21.24249 98.87241 33886 ft 467 kts 284°
2026-05-03 21:43 21.26003 98.80534 33883 ft 467 kts 284°
2026-05-03 21:44 21.27752 98.73827 33880 ft 467 kts 284°
2026-05-03 21:44 21.29490 98.67157 33880 ft 467 kts 284°
2026-05-03 21:45 21.31237 98.60440 33876 ft 467 kts 284°
2026-05-03 21:45 21.32986 98.53718 33866 ft 467 kts 284°
2026-05-03 21:46 21.34720 98.47015 33866 ft 466 kts 284°
2026-05-03 21:46 21.36459 98.40293 33863 ft 467 kts 284°
2026-05-03 21:47 21.38193 98.33577 33859 ft 467 kts 284°
2026-05-03 21:47 21.39927 98.26857 33851 ft 467 kts 283°
2026-05-03 21:48 21.41643 98.20182 33854 ft 467 kts 283°
2026-05-03 21:48 21.43366 98.13469 33849 ft 466 kts 283°
2026-05-03 21:49 21.45086 98.06759 33847 ft 466 kts 283°
2026-05-03 21:49 21.46528 98.01134 33839 ft 466 kts 283°
2026-05-03 21:50 21.48521 97.93336 33832 ft 466 kts 283°
2026-05-03 21:50 21.49951 97.87719 33836 ft 466 kts 283°
2026-05-03 21:51 21.51659 97.81005 33832 ft 466 kts 283°
2026-05-03 21:51 21.53356 97.74327 33805 ft 466 kts 283°
2026-05-03 21:52 21.55060 97.67606 33803 ft 466 kts 283°
2026-05-03 21:52 21.56764 97.60882 33801 ft 467 kts 283°
2026-05-03 21:53 21.58466 97.54144 33797 ft 467 kts 283°
2026-05-03 21:53 21.60165 97.47408 33795 ft 467 kts 283°
2026-05-03 21:54 21.61861 97.40676 33793 ft 467 kts 283°
2026-05-03 21:54 21.63555 97.33949 33788 ft 467 kts 283°
2026-05-03 21:55 21.65245 97.27209 33787 ft 467 kts 283°
2026-05-03 21:55 21.66935 97.20460 33781 ft 467 kts 283°
2026-05-03 21:56 21.68610 97.13756 33783 ft 467 kts 284°
2026-05-03 21:56 21.70294 97.07011 33779 ft 467 kts 284°
2026-05-03 21:57 21.71974 97.00259 33779 ft 468 kts 284°
2026-05-03 21:57 21.73656 96.93502 33772 ft 467 kts 284°
2026-05-03 21:58 21.75332 96.86748 33777 ft 467 kts 284°
2026-05-03 21:58 21.77002 96.79999 33772 ft 467 kts 284°
2026-05-03 21:59 21.78672 96.73246 33765 ft 467 kts 284°
2026-05-03 21:59 21.80339 96.66493 33763 ft 467 kts 284°
2026-05-03 22:00 21.82003 96.59730 33767 ft 467 kts 284°
2026-05-03 22:00 21.83665 96.52970 33764 ft 467 kts 284°
2026-05-03 22:01 21.85323 96.46218 33763 ft 467 kts 284°
2026-05-03 22:01 21.86982 96.39512 33762 ft 467 kts 284°
2026-05-03 22:02 21.88630 96.32756 33761 ft 466 kts 284°
2026-05-03 22:02 21.90266 96.26035 33773 ft 465 kts 284°
2026-05-03 22:03 21.91899 96.19294 33811 ft 467 kts 284°
2026-05-03 22:03 21.93413 96.12505 33497 ft 460 kts 279°
2026-05-03 22:04 21.93856 96.09131 33664 ft 452 kts 277°
2026-05-03 22:04 21.94178 96.05763 34074 ft 455 kts 275°
2026-05-03 22:04 21.94444 96.02329 33835 ft 462 kts 275°
2026-05-03 22:04 21.94709 95.98864 33766 ft 467 kts 275°
2026-05-03 22:05 21.95268 95.91930 33971 ft 471 kts 275°
2026-05-03 22:05 21.95860 95.84772 33681 ft 477 kts 275°
2026-05-03 22:06 21.96164 95.81275 33743 ft 465 kts 275°
2026-05-03 22:06 21.96451 95.77820 33738 ft 461 kts 275°
2026-05-03 22:06 21.97053 95.70881 33813 ft 474 kts 275°
2026-05-03 22:07 21.97363 95.67334 33617 ft 471 kts 276°
2026-05-03 22:07 21.97664 95.63864 33689 ft 461 kts 275°
2026-05-03 22:07 21.98251 95.56999 33768 ft 463 kts 275°
2026-05-03 22:08 21.98837 95.50089 33764 ft 469 kts 275°
2026-05-03 22:08 21.99425 95.43091 33765 ft 468 kts 275°
2026-05-03 22:09 22.00007 95.36096 33764 ft 468 kts 275°
2026-05-03 22:10 22.00871 95.25656 33776 ft 465 kts 275°
2026-05-03 22:10 22.01445 95.18705 33771 ft 467 kts 275°
2026-05-03 22:11 22.02017 95.11726 33774 ft 467 kts 275°
2026-05-03 22:11 22.02586 95.04762 33775 ft 467 kts 275°
2026-05-03 22:12 22.03148 94.97824 33774 ft 466 kts 275°
2026-05-03 22:12 22.03711 94.90851 33775 ft 468 kts 275°
2026-05-03 22:13 22.04272 94.83862 33777 ft 468 kts 275°
2026-05-03 22:13 22.04829 94.76872 33780 ft 469 kts 275°
2026-05-03 22:14 22.05382 94.69832 33760 ft 475 kts 275°
2026-05-03 22:14 22.05944 94.62775 33771 ft 471 kts 275°
2026-05-03 22:15 22.06495 94.55759 33788 ft 470 kts 275°
2026-05-03 22:15 22.07045 94.48719 33792 ft 471 kts 275°
2026-05-03 22:16 22.07592 94.41685 33795 ft 471 kts 275°
2026-05-03 22:16 22.08137 94.34634 33797 ft 472 kts 275°
2026-05-03 22:17 22.08675 94.27616 33802 ft 473 kts 275°
2026-05-03 22:17 22.09218 94.20531 33802 ft 472 kts 275°
2026-05-03 22:18 22.09753 94.13457 33809 ft 473 kts 275°
2026-05-03 22:18 22.10287 94.06381 33806 ft 474 kts 275°
2026-05-03 22:19 22.10815 93.99342 33816 ft 474 kts 275°
2026-05-03 22:19 22.11342 93.92257 33820 ft 474 kts 275°
2026-05-03 22:20 22.11868 93.85175 33822 ft 473 kts 275°
2026-05-03 22:20 22.12389 93.78090 33827 ft 473 kts 275°
2026-05-03 22:21 22.12907 93.71017 33831 ft 472 kts 275°
2026-05-03 22:21 22.13417 93.64000 33833 ft 472 kts 275°
2026-05-03 22:22 22.13928 93.56930 33837 ft 472 kts 275°
2026-05-03 22:22 22.14436 93.49872 33840 ft 471 kts 275°
2026-05-03 22:23 22.14941 93.42827 33844 ft 471 kts 275°
2026-05-03 22:23 22.15442 93.35782 33847 ft 470 kts 275°
2026-05-03 22:24 22.15940 93.28738 33849 ft 470 kts 275°
2026-05-03 22:24 22.16433 93.21710 33851 ft 469 kts 275°
2026-05-03 22:25 22.16921 93.14695 33855 ft 469 kts 275°
2026-05-03 22:25 22.17408 93.07682 33856 ft 468 kts 275°
2026-05-03 22:26 22.17887 93.00708 33861 ft 469 kts 275°
2026-05-03 22:26 22.18388 92.93688 33862 ft 468 kts 275°
2026-05-03 22:27 22.18866 92.86678 33863 ft 468 kts 274°
2026-05-03 22:27 22.19333 92.79682 33865 ft 467 kts 274°
2026-05-03 22:28 22.19796 92.72687 33867 ft 467 kts 274°
2026-05-03 22:28 22.20260 92.65687 33868 ft 467 kts 274°
2026-05-03 22:29 22.20705 92.58710 33870 ft 468 kts 274°
2026-05-03 22:29 22.21136 92.51702 33871 ft 467 kts 274°
2026-05-03 22:30 22.21555 92.44705 33871 ft 467 kts 274°
2026-05-03 22:30 22.21964 92.37749 33872 ft 470 kts 274°
2026-05-03 22:31 22.22382 92.30715 33873 ft 469 kts 274°
2026-05-03 22:31 22.22818 92.23703 33875 ft 468 kts 275°
2026-05-03 22:32 22.23344 92.16693 33875 ft 469 kts 275°
2026-05-03 22:32 22.23875 92.09683 33875 ft 468 kts 274°
2026-05-03 22:33 22.24374 92.02675 33875 ft 468 kts 274°
2026-05-03 22:33 22.24782 91.96853 33876 ft 468 kts 274°
2026-05-03 22:34 22.25363 91.88659 33874 ft 468 kts 276°
2026-05-03 22:34 22.25773 91.86377 33872 ft 468 kts 287°
2026-05-03 22:34 22.27120 91.83190 33876 ft 470 kts 302°
2026-05-03 22:35 22.31419 91.77844 33877 ft 474 kts 313°
2026-05-03 22:35 22.36377 91.73109 33876 ft 477 kts 318°
2026-05-03 22:36 22.41524 91.68581 33875 ft 478 kts 317°
2026-05-03 22:36 22.46637 91.63986 33875 ft 477 kts 317°
2026-05-03 22:37 22.51731 91.59386 33874 ft 477 kts 317°
2026-05-03 22:37 22.56831 91.54780 33874 ft 477 kts 317°
2026-05-03 22:38 22.61923 91.50177 33872 ft 477 kts 317°
2026-05-03 22:38 22.67021 91.45573 33871 ft 477 kts 317°
2026-05-03 22:39 22.72043 91.41016 33868 ft 476 kts 317°
2026-05-03 22:39 22.77172 91.36353 33865 ft 476 kts 317°
2026-05-03 22:40 22.82204 91.31776 33865 ft 476 kts 317°
2026-05-03 22:40 22.87269 91.27163 33860 ft 474 kts 317°
2026-05-03 22:41 22.92336 91.22556 33869 ft 476 kts 317°
2026-05-03 22:41 22.97422 91.17944 33869 ft 476 kts 317°
2026-05-03 22:42 23.02499 91.13316 33865 ft 476 kts 317°
2026-05-03 22:42 23.07572 91.08677 33859 ft 476 kts 317°
2026-05-03 22:43 23.12641 91.04039 33862 ft 476 kts 317°
2026-05-03 22:43 23.17715 90.99397 33863 ft 476 kts 317°
2026-05-03 22:44 23.22826 90.94815 33844 ft 477 kts 318°
2026-05-03 22:44 23.27957 90.90227 33840 ft 477 kts 317°
2026-05-03 22:45 23.33042 90.85671 33831 ft 477 kts 317°
2026-05-03 22:45 23.38166 90.81084 33830 ft 477 kts 318°
2026-05-03 22:46 23.43290 90.76491 33833 ft 477 kts 317°
2026-05-03 22:46 23.48411 90.71894 33830 ft 477 kts 317°
2026-05-03 22:47 23.53529 90.67297 33828 ft 477 kts 317°
2026-05-03 22:47 23.58658 90.62702 33826 ft 477 kts 318°
2026-05-03 22:48 23.63784 90.58110 33824 ft 477 kts 317°
2026-05-03 22:48 23.68907 90.53497 33822 ft 477 kts 317°
2026-05-03 22:49 23.74032 90.48873 33821 ft 477 kts 317°
2026-05-03 22:49 23.79151 90.44249 33818 ft 477 kts 316°
2026-05-03 22:49 23.81376 90.41595 33822 ft 474 kts 302°
2026-05-03 22:50 23.83015 90.38485 33809 ft 472 kts 296°
2026-05-03 22:50 23.85631 90.31938 33817 ft 469 kts 289°
2026-05-03 22:51 23.87788 90.25218 33816 ft 469 kts 288°
2026-05-03 22:51 23.89965 90.18489 33816 ft 469 kts 288°
2026-05-03 22:52 23.92156 90.11772 33818 ft 469 kts 289°
2026-05-03 22:52 23.94353 90.05050 33813 ft 469 kts 288°
2026-05-03 22:53 23.96534 89.98373 33813 ft 469 kts 288°
2026-05-03 22:53 23.98912 89.91716 33820 ft 469 kts 291°
2026-05-03 22:54 24.01378 89.85099 33821 ft 469 kts 291°
2026-05-03 22:54 24.03799 89.78471 33812 ft 469 kts 290°
2026-05-03 22:55 24.06202 89.71824 33817 ft 469 kts 290°
2026-05-03 22:55 24.08601 89.65174 33823 ft 469 kts 290°
2026-05-03 22:56 24.10979 89.58588 33824 ft 468 kts 290°
2026-05-03 22:56 24.13320 89.51937 33821 ft 468 kts 289°
2026-05-03 22:57 24.15586 89.45252 33827 ft 468 kts 289°
2026-05-03 22:57 24.17854 89.38572 33827 ft 468 kts 289°
2026-05-03 22:58 24.20123 89.31882 33823 ft 468 kts 289°
2026-05-03 22:58 24.22385 89.25212 33828 ft 467 kts 289°
2026-05-03 22:59 24.24658 89.18539 33828 ft 467 kts 289°
2026-05-03 22:59 24.26940 89.11866 33830 ft 467 kts 289°
2026-05-03 23:00 24.29205 89.05188 33835 ft 467 kts 289°
2026-05-03 23:00 24.31466 88.98501 33833 ft 468 kts 289°
2026-05-03 23:01 24.33727 88.91849 33832 ft 467 kts 289°
2026-05-03 23:01 24.35983 88.85172 33832 ft 467 kts 289°
2026-05-03 23:02 24.38228 88.78479 33833 ft 467 kts 289°
2026-05-03 23:02 24.40468 88.71781 33832 ft 467 kts 289°
2026-05-03 23:03 24.42711 88.65076 33836 ft 467 kts 289°
2026-05-03 23:03 24.45115 88.58448 33835 ft 468 kts 292°
2026-05-03 23:04 24.47877 88.51967 33836 ft 468 kts 293°
2026-05-03 23:04 24.50632 88.45478 33837 ft 468 kts 293°
2026-05-03 23:05 24.53360 88.38980 33853 ft 468 kts 293°
2026-05-03 23:05 24.56102 88.32491 33856 ft 469 kts 293°
2026-05-03 23:06 24.58839 88.26000 33846 ft 468 kts 293°
2026-05-03 23:06 24.61538 88.19532 33845 ft 468 kts 293°
2026-05-03 23:07 24.64247 88.13023 33846 ft 468 kts 293°
2026-05-03 23:07 24.66955 88.06513 33845 ft 468 kts 293°
2026-05-03 23:08 24.69661 87.99998 33845 ft 468 kts 292°
2026-05-03 23:08 24.72350 87.93467 33844 ft 468 kts 292°
2026-05-03 23:09 24.75026 87.86938 33842 ft 468 kts 292°
2026-05-03 23:09 24.77700 87.80409 33780 ft 469 kts 292°
2026-05-03 23:10 24.80419 87.73943 33795 ft 466 kts 293°
2026-05-03 23:10 24.83181 87.67473 33811 ft 467 kts 293°
2026-05-03 23:11 24.85914 87.61030 33813 ft 467 kts 293°
2026-05-03 23:11 24.88654 87.54553 33805 ft 466 kts 293°
2026-05-03 23:12 24.91390 87.48067 33806 ft 467 kts 293°
2026-05-03 23:12 24.94145 87.41595 33813 ft 466 kts 293°
2026-05-03 23:13 24.96892 87.35133 33814 ft 465 kts 293°
2026-05-03 23:13 24.99623 87.28671 33814 ft 465 kts 293°
2026-05-03 23:14 25.02352 87.22196 33811 ft 466 kts 293°
2026-05-03 23:14 25.05079 87.15715 33813 ft 465 kts 292°
2026-05-03 23:15 25.07780 87.09282 33809 ft 465 kts 292°
2026-05-03 23:15 25.10499 87.02799 33807 ft 465 kts 292°
2026-05-03 23:16 25.13208 86.96328 33804 ft 465 kts 292°
2026-05-03 23:16 25.15918 86.89846 33804 ft 465 kts 292°
2026-05-03 23:17 25.18623 86.83366 33802 ft 464 kts 292°
2026-05-03 23:17 25.21322 86.76892 33801 ft 464 kts 292°
2026-05-03 23:18 25.24039 86.70417 33799 ft 464 kts 292°
2026-05-03 23:18 25.26276 86.65031 33798 ft 464 kts 292°
2026-05-03 23:19 25.29396 86.57492 33797 ft 464 kts 292°
2026-05-03 23:19 25.31639 86.52062 33795 ft 464 kts 292°
2026-05-03 23:20 25.34304 86.45570 33791 ft 463 kts 289°
2026-05-03 23:20 25.36102 86.38759 33792 ft 461 kts 281°
2026-05-03 23:21 25.37327 86.31856 33789 ft 460 kts 279°
2026-05-03 23:21 25.38523 86.24913 33789 ft 460 kts 279°
2026-05-03 23:22 25.40375 86.14497 33788 ft 460 kts 280°
2026-05-03 23:22 25.41617 86.07564 33786 ft 459 kts 279°
2026-05-03 23:23 25.42783 86.01216 33790 ft 459 kts 280°
2026-05-03 23:23 25.44038 85.94329 33786 ft 460 kts 279°
2026-05-03 23:24 25.45287 85.87401 33787 ft 459 kts 279°
2026-05-03 23:24 25.46528 85.80484 33784 ft 458 kts 279°
2026-05-03 23:25 25.47763 85.73566 33783 ft 458 kts 279°
2026-05-03 23:25 25.48998 85.66637 33784 ft 459 kts 279°
2026-05-03 23:26 25.50229 85.59707 33784 ft 459 kts 279°
2026-05-03 23:26 25.51459 85.52765 33785 ft 459 kts 279°
2026-05-03 23:27 25.52685 85.45820 33784 ft 459 kts 279°
2026-05-03 23:27 25.53927 85.38883 33787 ft 459 kts 279°
2026-05-03 23:28 25.55146 85.31939 33789 ft 459 kts 279°
2026-05-03 23:28 25.56355 85.24996 33789 ft 459 kts 279°
2026-05-03 23:29 25.57553 85.18086 33788 ft 459 kts 279°
2026-05-03 23:29 25.58762 85.11129 33788 ft 459 kts 279°
2026-05-03 23:30 25.60436 85.04304 33787 ft 460 kts 285°
2026-05-03 23:30 25.62464 84.97574 33786 ft 460 kts 286°
2026-05-03 23:31 25.64471 84.90839 33788 ft 460 kts 286°
2026-05-03 23:31 25.66451 84.84091 33788 ft 461 kts 285°
2026-05-03 23:32 25.68423 84.77332 33791 ft 460 kts 285°
2026-05-03 23:32 25.70395 84.70599 33797 ft 459 kts 286°
2026-05-03 23:33 25.72379 84.63867 33797 ft 460 kts 285°
2026-05-03 23:33 25.74350 84.57117 33795 ft 459 kts 285°
2026-05-03 23:34 25.76305 84.50390 33802 ft 459 kts 285°
2026-05-03 23:34 25.78260 84.43645 33801 ft 458 kts 285°
2026-05-03 23:35 25.80193 84.36962 33802 ft 458 kts 285°
2026-05-03 23:35 25.82133 84.30240 33804 ft 458 kts 285°
2026-05-03 23:36 25.84076 84.23492 33805 ft 458 kts 285°
2026-05-03 23:36 25.86008 84.16772 33804 ft 457 kts 285°
2026-05-03 23:37 25.87941 84.10036 33802 ft 457 kts 285°
2026-05-03 23:37 25.89867 84.03309 33803 ft 457 kts 285°
2026-05-03 23:38 25.91789 83.96584 33800 ft 457 kts 285°
2026-05-03 23:38 25.93710 83.89894 33803 ft 457 kts 285°
2026-05-03 23:39 25.95638 83.83158 33800 ft 457 kts 285°
2026-05-03 23:39 25.97549 83.76410 33799 ft 457 kts 285°
2026-05-03 23:40 25.99452 83.69670 33798 ft 457 kts 284°
2026-05-03 23:40 26.01344 83.62962 33798 ft 457 kts 284°
2026-05-03 23:41 26.03248 83.56211 33799 ft 457 kts 284°
2026-05-03 23:41 26.05154 83.49461 33799 ft 456 kts 284°
2026-05-03 23:42 26.07046 83.42727 33795 ft 456 kts 284°
2026-05-03 23:42 26.08936 83.35982 33804 ft 457 kts 284°
2026-05-03 23:43 26.10824 83.29224 33788 ft 457 kts 284°
2026-05-03 23:43 26.12695 83.22519 33789 ft 456 kts 284°
2026-05-03 23:44 26.14607 83.15781 33789 ft 456 kts 284°
2026-05-03 23:44 26.16508 83.09036 33789 ft 457 kts 284°
2026-05-03 23:45 26.18401 83.02271 33786 ft 457 kts 284°
2026-05-03 23:45 26.20282 82.95525 33789 ft 456 kts 284°
2026-05-03 23:46 26.22161 82.88767 33787 ft 456 kts 284°
2026-05-03 23:46 26.24022 82.82060 33786 ft 456 kts 284°
2026-05-03 23:47 26.25903 82.75262 33788 ft 456 kts 284°
2026-05-03 23:47 26.27758 82.68547 33782 ft 457 kts 284°
2026-05-03 23:48 26.29625 82.61775 33783 ft 457 kts 284°
2026-05-03 23:48 26.31484 82.55016 33783 ft 455 kts 283°
2026-05-03 23:49 26.33339 82.48261 33779 ft 456 kts 284°
2026-05-03 23:49 26.35188 82.41498 33781 ft 456 kts 283°
2026-05-03 23:50 26.36726 82.35873 33778 ft 456 kts 283°
2026-05-03 23:50 26.38886 82.27966 33778 ft 456 kts 283°
2026-05-03 23:51 26.40734 82.21186 33771 ft 456 kts 283°
2026-05-03 23:51 26.42576 82.14408 33769 ft 456 kts 283°
2026-05-03 23:52 26.44416 82.07625 33763 ft 456 kts 283°
2026-05-03 23:52 26.46250 82.00841 33765 ft 456 kts 283°
2026-05-03 23:53 26.48071 81.94100 33760 ft 456 kts 283°
2026-05-03 23:53 26.49900 81.87320 33757 ft 456 kts 283°
2026-05-03 23:54 26.51725 81.80531 33751 ft 457 kts 283°
2026-05-03 23:54 26.53548 81.73744 33749 ft 457 kts 283°
2026-05-03 23:55 26.55367 81.66942 33744 ft 456 kts 283°
2026-05-03 23:55 26.57185 81.60147 33745 ft 456 kts 283°
2026-05-03 23:56 26.58998 81.53354 33741 ft 456 kts 283°
2026-05-03 23:56 26.60806 81.46568 33736 ft 456 kts 283°
2026-05-03 23:57 26.62610 81.39772 33737 ft 456 kts 283°
2026-05-03 23:57 26.64412 81.32972 33737 ft 456 kts 283°
2026-05-03 23:58 26.66215 81.26154 33727 ft 457 kts 283°
2026-05-03 23:58 26.68033 81.19348 33734 ft 457 kts 283°
2026-05-03 23:59 26.69832 81.12523 33730 ft 457 kts 283°
2026-05-03 23:59 26.71609 81.05732 33729 ft 458 kts 283°
2026-05-04 00:00 26.73394 80.98892 33728 ft 458 kts 283°
2026-05-04 00:00 26.75231 80.92078 33714 ft 459 kts 289°
2026-05-04 00:01 26.78611 80.85935 33720 ft 468 kts 302°
2026-05-04 00:01 26.82749 80.80261 33733 ft 474 kts 306°
2026-05-04 00:02 26.87072 80.74693 33728 ft 473 kts 305°
2026-05-04 00:02 26.91368 80.69093 33730 ft 473 kts 305°
2026-05-04 00:03 26.95641 80.63486 33730 ft 473 kts 305°
2026-05-04 00:03 26.99919 80.57880 33736 ft 473 kts 305°
2026-05-04 00:04 27.04205 80.52273 33732 ft 473 kts 305°
2026-05-04 00:04 27.08473 80.46662 33733 ft 473 kts 305°
2026-05-04 00:05 27.12712 80.41074 33734 ft 473 kts 305°
2026-05-04 00:05 27.16971 80.35450 33737 ft 472 kts 305°
2026-05-04 00:06 27.21232 80.29816 33737 ft 473 kts 305°
2026-05-04 00:06 27.25492 80.24175 33741 ft 473 kts 305°
2026-05-04 00:07 27.29035 80.19479 33736 ft 473 kts 305°
2026-05-04 00:07 27.33282 80.13841 33743 ft 472 kts 305°
2026-05-04 00:08 27.37528 80.08199 33746 ft 472 kts 305°
2026-05-04 00:08 27.41766 80.02559 33751 ft 471 kts 305°
2026-05-04 00:09 27.46008 79.96906 33749 ft 473 kts 305°
2026-05-04 00:09 27.50271 79.91239 33746 ft 474 kts 305°
2026-05-04 00:10 27.54519 79.85576 33749 ft 473 kts 305°
2026-05-04 00:10 27.58750 79.79906 33752 ft 473 kts 305°
2026-05-04 00:11 27.62956 79.74259 33754 ft 473 kts 305°
2026-05-04 00:11 27.67189 79.68574 33753 ft 473 kts 305°
2026-05-04 00:12 27.71216 79.62725 33753 ft 471 kts 300°
2026-05-04 00:12 27.74809 79.56573 33757 ft 470 kts 297°
2026-05-04 00:13 27.78396 79.50365 33754 ft 472 kts 297°
2026-05-04 00:13 27.82006 79.44176 33757 ft 471 kts 297°
2026-05-04 00:14 27.85623 79.37992 33759 ft 472 kts 297°
2026-05-04 00:14 27.89251 79.31805 33759 ft 472 kts 297°
2026-05-04 00:15 27.92889 79.25634 33760 ft 472 kts 297°
2026-05-04 00:15 27.96504 79.19496 33757 ft 471 kts 297°
2026-05-04 00:16 28.00108 79.13314 33763 ft 470 kts 297°
2026-05-04 00:16 28.03705 79.07125 33758 ft 471 kts 297°
2026-05-04 00:17 28.07300 79.00934 33763 ft 468 kts 297°
2026-05-04 00:17 28.09064 78.97898 33759 ft 454 kts 297°
2026-05-04 00:17 28.10709 78.94915 33745 ft 441 kts 293°
2026-05-04 00:18 28.12165 78.91847 33470 ft 442 kts 291°
2026-05-04 00:18 28.13514 78.88746 33181 ft 437 kts 290°
2026-05-04 00:18 28.14818 78.85645 32721 ft 435 kts 290°
2026-05-04 00:18 28.16125 78.82561 32281 ft 432 kts 290°
2026-05-04 00:19 28.17426 78.79514 31851 ft 427 kts 290°
2026-05-04 00:19 28.18722 78.76497 31415 ft 423 kts 290°
2026-05-04 00:19 28.19994 78.73540 30984 ft 420 kts 291°
2026-05-04 00:19 28.21275 78.70567 30545 ft 418 kts 291°
2026-05-04 00:20 28.22547 78.67617 30115 ft 415 kts 291°
2026-05-04 00:20 28.23810 78.64685 29683 ft 412 kts 291°
2026-05-04 00:20 28.25068 78.61766 29243 ft 410 kts 291°
2026-05-04 00:20 28.26330 78.58866 28797 ft 409 kts 292°
2026-05-04 00:21 28.27591 78.55978 28348 ft 407 kts 292°
2026-05-04 00:21 28.28844 78.53097 27900 ft 406 kts 292°
2026-05-04 00:21 28.30086 78.50230 27449 ft 404 kts 292°
2026-05-04 00:21 28.31322 78.47369 26999 ft 402 kts 292°
2026-05-04 00:22 28.32550 78.44522 26552 ft 400 kts 292°
2026-05-04 00:22 28.33772 78.41687 26106 ft 399 kts 292°
2026-05-04 00:22 28.34969 78.38903 25667 ft 397 kts 292°
2026-05-04 00:22 28.36179 78.36090 25221 ft 396 kts 292°
2026-05-04 00:23 28.37387 78.33278 24774 ft 395 kts 292°
2026-05-04 00:23 28.38592 78.30472 24330 ft 394 kts 292°
2026-05-04 00:23 28.39812 78.27661 23680 ft 401 kts 292°
2026-05-04 00:23 28.40991 78.24795 23333 ft 399 kts 289°
2026-05-04 00:24 28.41611 78.21812 23147 ft 386 kts 270°
2026-05-04 00:24 28.41345 78.18811 22868 ft 378 kts 255°
2026-05-04 00:24 28.40601 78.15955 22595 ft 375 kts 250°
2026-05-04 00:24 28.39667 78.13206 22279 ft 373 kts 246°
2026-05-04 00:25 28.38608 78.10523 21992 ft 371 kts 244°
2026-05-04 00:25 28.37457 78.07916 21681 ft 369 kts 242°
2026-05-04 00:25 28.36256 78.05337 21303 ft 369 kts 242°
2026-05-04 00:25 28.35076 78.02797 21248 ft 358 kts 242°
2026-05-04 00:26 28.33942 78.00331 21169 ft 344 kts 242°
2026-05-04 00:26 28.32867 77.97982 21149 ft 327 kts 242°
2026-05-04 00:26 28.31836 77.95727 20955 ft 319 kts 242°
2026-05-04 00:26 28.30844 77.93555 20891 ft 315 kts 242°
2026-05-04 00:27 28.29826 77.91311 20812 ft 322 kts 244°
2026-05-04 00:27 28.29226 77.88877 20670 ft 325 kts 264°
2026-05-04 00:27 28.29258 77.86336 20785 ft 315 kts 272°
2026-05-04 00:27 28.29550 77.83915 20543 ft 306 kts 277°
2026-05-04 00:28 28.29980 77.81558 20084 ft 303 kts 280°
2026-05-04 00:28 28.30322 77.79918 19737 ft 301 kts 281°
2026-05-04 00:28 28.30804 77.77610 19272 ft 297 kts 281°
2026-05-04 00:28 28.31258 77.75326 18985 ft 299 kts 281°
2026-05-04 00:29 28.31702 77.73016 18670 ft 299 kts 280°
2026-05-04 00:29 28.32134 77.70741 18363 ft 296 kts 280°
2026-05-04 00:29 28.32558 77.68480 18053 ft 296 kts 280°
2026-05-04 00:29 28.32984 77.66203 17756 ft 295 kts 281°
2026-05-04 00:30 28.33408 77.63931 17448 ft 293 kts 281°
2026-05-04 00:30 28.33833 77.61677 17170 ft 290 kts 280°
2026-05-04 00:30 28.34107 77.60207 17156 ft 284 kts 281°
2026-05-04 00:30 28.34541 77.57858 16918 ft 294 kts 281°
2026-05-04 00:31 28.34971 77.55577 16467 ft 293 kts 281°
2026-05-04 00:31 28.35385 77.53382 16171 ft 283 kts 280°
2026-05-04 00:31 28.35798 77.51162 15847 ft 287 kts 281°
2026-05-04 00:31 28.36213 77.48954 15512 ft 284 kts 280°
2026-05-04 00:32 28.36611 77.46809 15190 ft 281 kts 280°
2026-05-04 00:32 28.37007 77.44632 14902 ft 281 kts 281°
2026-05-04 00:32 28.37409 77.42490 14577 ft 273 kts 281°
2026-05-04 00:32 28.37808 77.40362 14297 ft 281 kts 281°
2026-05-04 00:33 28.38205 77.38186 13876 ft 278 kts 281°
2026-05-04 00:33 28.38977 77.34016 13284 ft 261 kts 280°
2026-05-04 00:33 28.39336 77.32046 12971 ft 249 kts 280°
2026-05-04 00:34 28.39706 77.30177 12758 ft 235 kts 282°
2026-05-04 00:34 28.40118 77.28328 12646 ft 248 kts 283°
2026-05-04 00:34 28.40545 77.26419 12338 ft 250 kts 283°
2026-05-04 00:34 28.40963 77.24537 12019 ft 243 kts 282°
2026-05-04 00:35 28.41361 77.22696 11729 ft 236 kts 282°
2026-05-04 00:35 28.41751 77.20894 11377 ft 232 kts 282°
2026-05-04 00:35 28.42145 77.19078 11253 ft 239 kts 282°
2026-05-04 00:35 28.42537 77.17214 11165 ft 247 kts 282°
2026-05-04 00:36 28.42949 77.15330 10940 ft 245 kts 282°
2026-05-04 00:36 28.43360 77.13444 10481 ft 248 kts 281°
2026-05-04 00:36 28.43771 77.11545 10131 ft 242 kts 281°
2026-05-04 00:36 28.44172 77.09681 9908 ft 250 kts 281°
2026-05-04 00:37 28.44589 77.07741 9544 ft 260 kts 281°
2026-05-04 00:37 28.45015 77.05778 9738 ft 254 kts 280°
2026-05-04 00:37 28.45431 77.03819 9306 ft 252 kts 281°
2026-05-04 00:37 28.45852 77.01891 8955 ft 251 kts 280°
2026-05-04 00:38 28.46264 76.99993 8565 ft 243 kts 280°
2026-05-04 00:38 28.46662 76.98134 8035 ft 237 kts 280°
2026-05-04 00:38 28.47047 76.96341 7557 ft 230 kts 280°
2026-05-04 00:38 28.47424 76.94596 7037 ft 226 kts 280°
2026-05-04 00:39 28.47795 76.92860 6362 ft 226 kts 280°
2026-05-04 00:39 28.48166 76.91114 5665 ft 225 kts 281°
2026-05-04 00:39 28.48533 76.89394 5086 ft 221 kts 281°
2026-05-04 00:39 28.48897 76.87707 4515 ft 219 kts 281°
2026-05-04 00:40 28.49379 76.86080 4245 ft 219 kts 298°
2026-05-04 00:40 28.50493 76.84888 4133 ft 224 kts 330°
2026-05-04 00:40 28.51930 76.84419 4126 ft 213 kts 349°
2026-05-04 00:40 28.53443 76.84323 3954 ft 223 kts
2026-05-04 00:41 28.54951 76.84450 3710 ft 213 kts
2026-05-04 00:41 28.56375 76.84662 3569 ft 204 kts 12°
2026-05-04 00:41 28.57834 76.84911 3594 ft 214 kts 12°
2026-05-04 00:41 28.59284 76.85139 3355 ft 209 kts 15°
2026-05-04 00:42 28.60547 76.85812 2914 ft 194 kts 46°
2026-05-04 00:42 28.61125 76.87128 2791 ft 186 kts 76°
2026-05-04 00:42 28.61225 76.88188 2754 ft 192 kts 86°
2026-05-04 00:42 28.61117 76.89653 2676 ft 178 kts 98°
2026-05-04 00:43 28.60828 76.91020 2657 ft 181 kts 104°
2026-05-04 00:43 28.60484 76.92352 2624 ft 175 kts 105°
2026-05-04 00:43 28.60144 76.93712 2637 ft 176 kts 105°
2026-05-04 00:43 28.59831 76.95027 2593 ft 172 kts 105°
2026-05-04 00:44 28.59525 76.96340 2638 ft 171 kts 105°
2026-05-04 00:44 28.59223 76.97650 2671 ft 162 kts 105°
2026-05-04 00:44 28.58937 76.98884 2499 ft 164 kts 105°
2026-05-04 00:44 28.58644 77.00156 2218 ft 166 kts 105°
2026-05-04 00:45 28.58352 77.01423 2027 ft 179 kts 105°
2026-05-04 00:45 28.58034 77.02799 1815 ft 179 kts 105°
2026-05-04 00:45 28.57724 77.04143 1570 ft 173 kts 105°
2026-05-04 00:45 28.57423 77.05452 1324 ft 169 kts 105°
2026-05-04 00:46 28.57125 77.06742 1119 ft 170 kts 105°
2026-05-04 00:46 28.56824 77.08047 899 ft 172 kts 105°
2026-05-04 00:46 28.56513 77.09395 792 ft 172 kts 105°
2026-05-04 00:46 28.56275 77.10420 791 ft 98 kts 104°
2026-05-04 00:47 28.56143 77.11001 791 ft 59 kts 104°
2026-05-04 00:47 28.56059 77.11309 790 ft 30 kts 127°
2026-05-04 00:47 28.55954 77.11455 790 ft 15 kts 135°
2026-05-04 00:47 28.55872 77.11495 790 ft 14 kts 228°
2026-05-04 00:48 28.55854 77.11432 790 ft 10 kts 277°
2026-05-04 00:48 28.55872 77.11339 790 ft 12 kts 285°
2026-05-04 00:48 28.55900 77.11222 790 ft 18 kts 285°
2026-05-04 00:48 28.55931 77.11088 790 ft 17 kts 284°
2026-05-04 00:49 28.55966 77.10934 790 ft 24 kts 285°
2026-05-04 00:49 28.56008 77.10753 790 ft 25 kts 284°
2026-05-04 00:49 28.56052 77.10563 790 ft 27 kts 284°
2026-05-04 00:49 28.56097 77.10367 790 ft 25 kts 284°
2026-05-04 00:50 28.56146 77.10163 790 ft 27 kts 285°
2026-05-04 00:50 28.56193 77.09965 790 ft 25 kts 283°
2026-05-04 00:50 28.56232 77.09786 790 ft 20 kts 284°
2026-05-04 00:50 28.56224 77.09739 790 ft 6 kts 207°
2026-05-04 00:51 28.56168 77.09710 790 ft 10 kts 195°
2026-05-04 00:51 28.56104 77.09691 790 ft 9 kts 195°
2026-05-04 00:51 28.56042 77.09671 790 ft 9 kts 195°
2026-05-04 00:51 28.55996 77.09633 790 ft 9 kts 263°
2026-05-04 00:52 28.56006 77.09555 790 ft 11 kts 283°
2026-05-04 00:52 28.56031 77.09448 790 ft 14 kts 285°
2026-05-04 00:52 28.56047 77.09377 790 ft 14 kts 285°
2026-05-04 00:52 28.56071 77.09275 790 ft 13 kts 285°
2026-05-04 00:53 28.56094 77.09178 790 ft 12 kts 285°
2026-05-04 00:53 28.56125 77.09043 790 ft 16 kts 284°
2026-05-04 00:53 28.56152 77.08928 790 ft 25 kts 285°
2026-05-04 00:53 28.56195 77.08745 790 ft 23 kts 285°
2026-05-04 00:54 28.56236 77.08574 790 ft 22 kts 285°
2026-05-04 00:54 28.56274 77.08409 790 ft 21 kts 284°
2026-05-04 00:54 28.56304 77.08303 790 ft 10 kts 321°
2026-05-04 00:54 28.56346 77.08297 790 ft 3 kts 16°
2026-05-04 00:55 28.56367 77.08303 790 ft 3 kts 15°
2026-05-04 00:55 28.56376 77.08306 790 ft 1 kts 15°
2026-05-04 00:55 28.56375 77.08306 790 ft 0 kts 15°